Location: Earls Croome
(52.0667°N, 2.2000°W)
Time: 15:46:18
(UTC+00:00)

Cosmos 2360 Rocket - Pass Details

Date: 17 November 2019
Orbit: 832 x 847 km, 71.0° (Epoch: 14 December)

Event Time Altitude Azimuth Distance (km) Brightness Sun altitude
Exits shadow 04:49:22 18° 343° (NNW) 1,949 3.9 -24.6°
Maximum altitude 04:53:18 46° 50° (NE) 1,128 3.1 -24.0°
Drops below altitude 10° 04:58:45 10° 123° (ESE) 2,469 5.4 -23.2°
Sets 05:01:18 0° 130° (SE) 3,400 6.2 -22.8°
